| time (UTC) | temp F | wind direction | speed knots | gust knots | rain 1hr in | rain 24hr in | rain mn in | humidity % | barometer mb |
| 20260903073237 | 78 | 207 | 4.3 | 7.0 | 0.01 | 0.04 | 0.03 | 78 | 1004.2 |
| 20260903072738 | 78 | 209 | 2.6 | 6.1 | 0.01 | 0.04 | 0.03 | 78 | 1004.2 |
| 20260903072237 | 78 | 193 | 4.3 | 6.1 | 0.01 | 0.04 | 0.03 | 77 | 1004.2 |
| 20260903071738 | 78 | 225 | 2.6 | 6.1 | 0.01 | 0.04 | 0.03 | 77 | 1003.8 |
| 20260903071238 | 78 | 180 | 2.6 | 7.8 | 0.01 | 0.04 | 0.03 | 77 | 1003.8 |
| 20260903070737 | 79 | 252 | 0.9 | 7.8 | 0.01 | 0.04 | 0.03 | 76 | 1004.2 |
| 20260903070237 | 79 | 177 | 5.2 | 7.8 | 0.01 | 0.04 | 0.03 | 76 | 1003.8 |
| 20260903065738 | 79 | 196 | 1.7 | 6.1 | 0.01 | 0.04 | 0.02 | 76 | 1003.8 |
| 20260903065237 | 79 | 204 | 2.6 | 8.7 | 0.01 | 0.04 | 0.02 | 76 | 1004.2 |
| 20260903064737 | 79 | 177 | 4.3 | 8.7 | 0.01 | 0.04 | 0.02 | 75 | 1003.8 |
| 20260903064237 | 79 | 199 | 6.1 | 6.1 | 0.00 | 0.04 | 0.02 | 75 | 1004.2 |
| 20260903063737 | 79 | 188 | 4.3 | 7.0 | 0.00 | 0.04 | 0.02 | 75 | 1004.2 |
| 20260903063237 | 79 | 187 | 2.6 | 7.0 | 0.00 | 0.04 | 0.02 | 76 | 1003.8 |
| 20260903062737 | 79 | 174 | 3.5 | 6.1 | 0.00 | 0.04 | 0.02 | 76 | 1004.2 |
| 20260903062237 | 79 | 207 | 2.6 | 7.0 | 0.00 | 0.04 | 0.02 | 76 | 1004.2 |
| 20260903061737 | 79 | 187 | 3.5 | 7.0 | 0.00 | 0.04 | 0.02 | 76 | 1004.5 |
| 20260903061237 | 79 | 159 | 3.5 | 7.8 | 0.00 | 0.04 | 0.02 | 76 | 1004.2 |
| 20260903060737 | 79 | 179 | 4.3 | 7.8 | 0.00 | 0.04 | 0.02 | 76 | 1004.5 |
| 20260903060238 | 79 | 208 | 4.3 | 7.0 | 0.01 | 0.04 | 0.02 | 76 | 1004.2 |
| 20260903055738 | 79 | 191 | 2.6 | 4.3 | 0.01 | 0.04 | 0.02 | 75 | 1004.2 |
| 20260903055237 | 79 | 174 | 2.6 | 4.3 | 0.01 | 0.04 | 0.02 | 75 | 1004.5 |
| 20260903054738 | 79 | 200 | 2.6 | 4.3 | 0.01 | 0.04 | 0.02 | 75 | 1004.5 |
| 20260903054236 | 79 | 205 | 1.7 | 6.1 | 0.01 | 0.04 | 0.02 | 76 | 1004.2 |
| 20260903053737 | 79 | 29 | 0.0 | 6.1 | 0.01 | 0.04 | 0.02 | 76 | 1004.2 |
| 20260903053237 | 79 | 183 | 2.6 | 6.1 | 0.01 | 0.04 | 0.02 | 77 | 1004.2 |
| 20260903052737 | 79 | 190 | 5.2 | 5.2 | 0.01 | 0.04 | 0.02 | 76 | 1004.2 |
| 20260903052236 | 79 | 197 | 2.6 | 4.3 | 0.01 | 0.04 | 0.02 | 76 | 1004.5 |
| 20260903051738 | 79 | 204 | 3.5 | 4.3 | 0.01 | 0.04 | 0.02 | 76 | 1004.5 |
| 20260903051237 | 79 | 188 | 1.7 | 6.1 | 0.01 | 0.04 | 0.01 | 76 | 1004.2 |
| 20260903050738 | 80 | 188 | 3.5 | 6.1 | 0.01 | 0.04 | 0.01 | 76 | 1004.5 |
| 20260903050238 | 79 | 251 | 1.7 | 6.1 | 0.00 | 0.03 | 0.01 | 76 | 1004.2 |
| 20260903045737 | 80 | 185 | 1.7 | 6.1 | 0.00 | 0.03 | 0.00 | 76 | 1004.2 |
| 20260903045237 | 80 | 197 | 3.5 | 5.2 | 0.00 | 0.03 | 0.00 | 75 | 1004.2 |
| 20260903044737 | 80 | 198 | 1.7 | 4.3 | 0.00 | 0.03 | 0.00 | 75 | 1004.2 |
| 20260903044238 | 80 | 251 | 1.7 | 5.2 | 0.00 | 0.03 | 0.00 | 76 | 1004.2 |
| 20260903043737 | 80 | 176 | 2.6 | 5.2 | 0.00 | 0.03 | 0.00 | 76 | 1004.2 |
| 20260903043237 | 80 | 200 | 3.5 | 5.2 | 0.00 | 0.03 | 0.00 | 76 | 1004.2 |
| 20260903042738 | 80 | 206 | 2.6 | 5.2 | 0.00 | 0.03 | 0.00 | 77 | 1004.2 |
| 20260903042237 | 80 | 190 | 2.6 | 5.2 | 0.00 | 0.03 | 0.00 | 76 | 1004.5 |
| 20260903041738 | 80 | 120 | 0.0 | 5.2 | 0.00 | 0.03 | 0.00 | 75 | 1004.2 |
| 20260903041238 | 81 | 226 | 2.6 | 7.0 | 0.00 | 0.03 | 0.00 | 74 | 1004.5 |
| 20260903040737 | 81 | 190 | 4.3 | 7.0 | 0.00 | 0.03 | 0.00 | 73 | 1004.2 |
| 20260903040237 | 81 | 181 | 3.5 | 7.0 | 0.00 | 0.03 | 0.00 | 72 | 1004.5 |
| 20260903035738 | 81 | 191 | 4.3 | 5.2 | 0.00 | 0.03 | 0.00 | 73 | 1004.5 |
| 20260903035237 | 81 | 198 | 2.6 | 6.1 | 0.00 | 0.03 | 0.00 | 75 | 1004.5 |
| 20260903034737 | 81 | 223 | 1.7 | 6.1 | 0.00 | 0.03 | 0.00 | 75 | 1004.2 |
| 20260903034238 | 81 | 194 | 4.3 | 6.1 | 0.00 | 0.03 | 0.00 | 76 | 1004.5 |
| 20260903033737 | 81 | 185 | 3.5 | 5.2 | 0.00 | 0.03 | 0.00 | 75 | 1004.5 |
| 20260903033238 | 81 | 193 | 4.3 | 5.2 | 0.00 | 0.03 | 0.00 | 75 | 1004.5 |
| 20260903032737 | 81 | 185 | 2.6 | 3.5 | 0.00 | 0.03 | 0.00 | 76 | 1004.2 |
| 20260903032237 | 82 | 121 | 0.9 | 5.2 | 0.00 | 0.03 | 0.00 | 76 | 1004.5 |
| 20260903031737 | 82 | 179 | 3.5 | 5.2 | 0.00 | 0.03 | 0.00 | 75 | 1004.5 |
| 20260903031237 | 82 | 195 | 4.3 | 5.2 | 0.00 | 0.03 | 0.00 | 74 | 1004.5 |
| 20260903030737 | 82 | 184 | 2.6 | 4.3 | 0.00 | 0.03 | 0.00 | 72 | 1004.5 |
| 20260903030238 | 83 | 201 | 1.7 | 4.3 | 0.00 | 0.03 | 0.00 | 73 | 1004.5 |
| 20260903025737 | 83 | 191 | 2.6 | 4.3 | 0.00 | 0.03 | 0.00 | 73 | 1004.2 |
| 20260903025238 | 83 | 269 | 0.0 | 4.3 | 0.00 | 0.03 | 0.00 | 73 | 1004.5 |
| 20260903024737 | 83 | 238 | 0.9 | 5.2 | 0.00 | 0.03 | 0.00 | 72 | 1004.5 |
| 20260903024237 | 84 | 184 | 2.6 | 5.2 | 0.00 | 0.03 | 0.00 | 71 | 1004.5 |
| 20260903023738 | 84 | 176 | 1.7 | 4.3 | 0.00 | 0.03 | 0.00 | 70 | 1004.5 |
| 20260903023238 | 85 | 234 | 0.9 | 3.5 | 0.00 | 0.03 | 0.00 | 67 | 1004.5 |
| 20260903022737 | 85 | 212 | 2.6 | 4.3 | 0.00 | 0.03 | 0.00 | 66 | 1004.5 |
| 20260903022238 | 85 | 234 | 1.7 | 4.3 | 0.00 | 0.03 | 0.00 | 66 | 1004.5 |
| 20260903021738 | 85 | 203 | 2.6 | 4.3 | 0.00 | 0.03 | 0.00 | 66 | 1004.2 |
| 20260903021237 | 85 | 195 | 1.7 | 3.5 | 0.00 | 0.03 | 0.00 | 65 | 1004.9 |
| 20260903020737 | 85 | 242 | 0.0 | 3.5 | 0.00 | 0.03 | 0.00 | 64 | 1004.2 |
| 20260903020239 | 85 | 154 | 0.0 | 5.2 | 0.00 | 0.03 | 0.00 | 64 | 1004.5 |
| 20260903015737 | 85 | 233 | 0.9 | 6.1 | 0.00 | 0.03 | 0.00 | 63 | 1004.5 |
| 20260903015238 | 86 | 192 | 5.2 | 6.1 | 0.00 | 0.03 | 0.00 | 62 | 1004.5 |
| 20260903014737 | 87 | 157 | 0.0 | 2.6 | 0.00 | 0.03 | 0.00 | 58 | 1004.2 |
| 20260903014237 | 87 | 205 | 1.7 | 3.5 | 0.00 | 0.03 | 0.00 | 57 | 1004.2 |
| 20260903013740 | 87 | 269 | 0.0 | 3.5 | 0.00 | 0.03 | 0.00 | 55 | 1004.5 |
| 20260903013238 | 88 | 215 | 2.6 | 3.5 | 0.00 | 0.03 | 0.00 | 55 | 1004.2 |
| 20260903012737 | 88 | 223 | 1.7 | 3.5 | 0.00 | 0.03 | 0.00 | 55 | 1004.2 |
| 20260903012237 | 88 | 217 | 2.6 | 3.5 | 0.00 | 0.03 | 0.00 | 54 | 1004.2 |
| 20260903011738 | 88 | 231 | 2.6 | 3.5 | 0.00 | 0.03 | 0.00 | 54 | 1004.2 |
| 20260903011239 | 88 | 217 | 2.6 | 3.5 | 0.00 | 0.03 | 0.00 | 54 | 1004.2 |
| 20260903010738 | 88 | 213 | 2.6 | 3.5 | 0.00 | 0.03 | 0.00 | 55 | 1004.2 |
| 20260903010237 | 88 | 238 | 0.9 | 2.6 | 0.00 | 0.03 | 0.00 | 57 | 1004.2 |
| 20260903005737 | 88 | 223 | 1.7 | 3.5 | 0.00 | 0.03 | 0.00 | 57 | 1004.2 |
| 20260903005237 | 88 | 205 | 2.6 | 3.5 | 0.00 | 0.03 | 0.00 | 57 | 1003.8 |
| 20260903004737 | 88 | 204 | 1.7 | 3.5 | 0.00 | 0.03 | 0.00 | 57 | 1003.8 |
| 20260903004237 | 89 | 187 | 1.7 | 2.6 | 0.00 | 0.03 | 0.00 | 56 | 1003.5 |
| 20260903003738 | 89 | 193 | 0.0 | 1.7 | 0.00 | 0.03 | 0.00 | 55 | 1003.8 |
| 20260903003237 | 89 | 224 | 0.0 | 1.7 | 0.00 | 0.03 | 0.00 | 54 | 1003.8 |
| 20260903002737 | 89 | 243 | 0.9 | 1.7 | 0.00 | 0.03 | 0.00 | 53 | 1003.8 |
| 20260903002238 | 89 | 76 | 0.0 | 3.5 | 0.00 | 0.03 | 0.00 | 53 | 1003.5 |
| 20260903001737 | 89 | 91 | 0.0 | 3.5 | 0.00 | 0.03 | 0.00 | 53 | 1003.8 |
| 20260903001237 | 89 | 212 | 1.7 | 2.6 | 0.00 | 0.03 | 0.00 | 53 | 1003.8 |
| 20260903000737 | 90 | 226 | 0.9 | 1.7 | 0.00 | 0.03 | 0.00 | 54 | 1003.8 |
| 20260903000237 | 90 | 245 | 0.9 | 2.6 | 0.00 | 0.03 | 0.00 | 49 | 1003.8 |
| 20260902235737 | 91 | 253 | 1.7 | 2.6 | 0.00 | 0.03 | 0.03 | 50 | 1003.8 |
| 20260902235237 | 92 | 352 | 0.9 | 2.6 | 0.00 | 0.03 | 0.03 | 48 | 1003.5 |
| 20260902234737 | 92 | 237 | 0.0 | 2.6 | 0.00 | 0.03 | 0.03 | 49 | 1003.8 |
| 20260902234238 | 92 | 241 | 0.0 | 2.6 | 0.00 | 0.03 | 0.03 | 48 | 1003.5 |
| 20260902233737 | 92 | 243 | 1.7 | 2.6 | 0.00 | 0.03 | 0.03 | 47 | 1004.2 |
| 20260902233237 | 92 | 241 | 0.9 | 2.6 | 0.00 | 0.03 | 0.03 | 47 | 1003.8 |
| 20260902232737 | 93 | 256 | 1.7 | 2.6 | 0.00 | 0.03 | 0.03 | 48 | 1003.8 |
| 20260902232237 | 93 | 259 | 1.7 | 2.6 | 0.00 | 0.03 | 0.03 | 48 | 1004.2 |
| 20260902231737 | 93 | 336 | 0.9 | 2.6 | 0.00 | 0.03 | 0.03 | 45 | 1003.8 |
| 20260902231237 | 93 | 319 | 1.7 | 3.5 | 0.00 | 0.03 | 0.03 | 46 | 1003.8 |
| 20260902230737 | 94 | 329 | 0.9 | 3.5 | 0.00 | 0.03 | 0.03 | 45 | 1004.2 |
| 20260902230238 | 94 | 245 | 0.0 | 2.6 | 0.00 | 0.03 | 0.03 | 45 | 1004.2 |
| 20260902225738 | 93 | 248 | 1.7 | 4.3 | 0.00 | 0.03 | 0.03 | 44 | 1004.2 |
| 20260902225237 | 93 | 261 | 3.5 | 4.3 | 0.00 | 0.03 | 0.03 | 43 | 1003.8 |
| 20260902224737 | 94 | 255 | 2.6 | 4.3 | 0.00 | 0.03 | 0.03 | 43 | 1003.8 |
| 20260902224237 | 93 | 266 | 3.5 | 4.3 | 0.00 | 0.03 | 0.03 | 43 | 1004.2 |
| 20260902223737 | 94 | 263 | 4.3 | 5.2 | 0.00 | 0.03 | 0.03 | 44 | 1004.2 |
| 20260902223237 | 94 | 304 | 1.7 | 5.2 | 0.00 | 0.03 | 0.03 | 43 | 1004.2 |
| 20260902222738 | 94 | 260 | 2.6 | 5.2 | 0.00 | 0.03 | 0.03 | 43 | 1004.5 |
| 20260902222238 | 94 | 254 | 2.6 | 5.2 | 0.00 | 0.03 | 0.03 | 43 | 1003.8 |
| 20260902221737 | 95 | 232 | 2.6 | 5.2 | 0.00 | 0.03 | 0.03 | 43 | 1004.2 |
| 20260902221237 | 95 | 266 | 1.7 | 5.2 | 0.00 | 0.03 | 0.03 | 42 | 1004.2 |
| 20260902220738 | 95 | 265 | 1.7 | 5.2 | 0.00 | 0.03 | 0.03 | 42 | 1003.8 |
| 20260902220237 | 95 | 298 | 4.3 | 6.1 | 0.00 | 0.03 | 0.03 | 42 | 1004.2 |
| 20260902215738 | 94 | 266 | 2.6 | 6.1 | 0.00 | 0.03 | 0.03 | 44 | 1004.5 |
| 20260902215238 | 95 | 262 | 1.7 | 7.0 | 0.00 | 0.03 | 0.03 | 44 | 1004.2 |
| 20260902214738 | 95 | 269 | 3.5 | 7.0 | 0.00 | 0.03 | 0.03 | 42 | 1004.2 |
| 20260902214237 | 94 | 275 | 1.7 | 6.1 | 0.00 | 0.03 | 0.03 | 45 | 1004.2 |
| 20260902213737 | 95 | 251 | 3.5 | 4.3 | 0.00 | 0.03 | 0.03 | 45 | 1004.2 |
| 20260902213238 | 95 | 246 | 0.9 | 6.1 | 0.00 | 0.03 | 0.03 | 44 | 1004.2 |
| 20260902212739 | 94 | 252 | 3.5 | 7.0 | 0.00 | 0.03 | 0.03 | 46 | 1004.2 |
| 20260902212239 | 93 | 246 | 4.3 | 7.0 | 0.00 | 0.03 | 0.03 | 46 | 1004.2 |
| 20260902211738 | 95 | 275 | 5.2 | 7.0 | 0.00 | 0.03 | 0.03 | 44 | 1004.2 |
| 20260902211238 | 94 | 277 | 4.3 | 8.7 | 0.00 | 0.03 | 0.03 | 45 | 1004.5 |
| 20260902210737 | 93 | 266 | 6.1 | 9.6 | 0.00 | 0.03 | 0.03 | 45 | 1004.5 |
| 20260902210238 | 94 | 283 | 4.3 | 9.6 | 0.00 | 0.03 | 0.03 | 44 | 1004.5 |
| 20260902205737 | 94 | 252 | 7.0 | 8.7 | 0.00 | 0.03 | 0.03 | 45 | 1004.5 |
| 20260902205238 | 94 | 234 | 5.2 | 7.8 | 0.00 | 0.03 | 0.03 | 44 | 1004.5 |
| 20260902204739 | 94 | 253 | 3.5 | 6.1 | 0.00 | 0.03 | 0.03 | 44 | 1004.5 |
| 20260902204238 | 96 | 246 | 5.2 | 6.1 | 0.00 | 0.03 | 0.03 | 42 | 1004.5 |
| 20260902203737 | 94 | 233 | 1.7 | 8.7 | 0.00 | 0.03 | 0.03 | 42 | 1004.5 |
| 20260902203238 | 92 | 280 | 3.5 | 8.7 | 0.00 | 0.03 | 0.03 | 45 | 1004.5 |
| 20260902202738 | 94 | 242 | 6.1 | 8.7 | 0.00 | 0.03 | 0.03 | 44 | 1004.5 |
| 20260902202238 | 96 | 251 | 4.3 | 5.2 | 0.00 | 0.03 | 0.03 | 43 | 1004.5 |
| 20260902201739 | 94 | 296 | 1.7 | 7.8 | 0.00 | 0.03 | 0.03 | 44 | 1004.5 |
| 20260902201238 | 93 | 313 | 4.3 | 7.8 | 0.00 | 0.03 | 0.03 | 46 | 1004.5 |
| 20260902200738 | 93 | 307 | 2.6 | 9.6 | 0.00 | 0.03 | 0.03 | 45 | 1004.9 |
| 20260902200237 | 93 | 293 | 3.5 | 10.4 | 0.00 | 0.03 | 0.03 | 45 | 1004.9 |
| 20260902195736 | 93 | 239 | 6.1 | 10.4 | 0.00 | 0.03 | 0.03 | 46 | 1004.5 |
| 20260902195237 | 93 | 229 | 2.6 | 8.7 | 0.00 | 0.03 | 0.03 | 43 | 1004.5 |
| 20260902194739 | 93 | 256 | 6.1 | 8.7 | 0.00 | 0.03 | 0.03 | 45 | 1004.9 |
| 20260902194237 | 94 | 243 | 5.2 | 6.1 | 0.00 | 0.03 | 0.03 | 43 | 1004.9 |
| 20260902193738 | 94 | 257 | 3.5 | 7.8 | 0.00 | 0.03 | 0.03 | 44 | 1005.2 |
| 20260902193237 | 92 | 306 | 3.5 | 9.6 | 0.00 | 0.03 | 0.03 | 45 | 1005.2 |
| 20260902192738 | 93 | 250 | 6.1 | 9.6 | 0.00 | 0.03 | 0.03 | 45 | 1005.2 |
| 20260902192237 | 93 | 285 | 2.6 | 4.3 | 0.00 | 0.03 | 0.03 | 45 | 1005.2 |
| 20260902191738 | 92 | 265 | 1.7 | 5.2 | 0.00 | 0.03 | 0.03 | 47 | 1005.2 |
| 20260902191238 | 92 | 219 | 1.7 | 7.0 | 0.00 | 0.03 | 0.03 | 46 | 1005.6 |
| 20260902190736 | 92 | 272 | 2.6 | 7.0 | 0.00 | 0.03 | 0.03 | 48 | 1005.2 |
| 20260902190236 | 93 | 246 | 6.1 | 7.0 | 0.00 | 0.03 | 0.03 | 48 | 1005.2 |
| 20260902185738 | 92 | 235 | 6.1 | 6.1 | 0.00 | 0.03 | 0.03 | 48 | 1005.6 |
| 20260902185238 | 91 | 246 | 2.6 | 6.1 | 0.00 | 0.03 | 0.03 | 50 | 1005.6 |
| 20260902184738 | 92 | 271 | 3.5 | 5.2 | 0.00 | 0.03 | 0.03 | 48 | 1005.6 |
| 20260902184239 | 93 | 266 | 3.5 | 7.8 | 0.00 | 0.03 | 0.03 | 46 | 1005.6 |
| 20260902183737 | 92 | 147 | 0.9 | 8.7 | 0.00 | 0.03 | 0.03 | 48 | 1005.9 |
| 20260902183237 | 93 | 259 | 7.0 | 8.7 | 0.00 | 0.03 | 0.03 | 46 | 1005.6 |
| 20260902182737 | 93 | 269 | 1.7 | 4.3 | 0.00 | 0.03 | 0.03 | 45 | 1005.6 |
| 20260902182239 | 92 | 13 | 2.6 | 6.1 | 0.00 | 0.03 | 0.03 | 47 | 1005.6 |
| 20260902181737 | 91 | 266 | 0.9 | 9.6 | 0.00 | 0.03 | 0.03 | 49 | 1005.9 |
| 20260902181237 | 92 | 262 | 4.3 | 9.6 | 0.00 | 0.03 | 0.03 | 48 | 1005.9 |
| 20260902180737 | 93 | 259 | 6.1 | 7.8 | 0.00 | 0.03 | 0.03 | 47 | 1005.9 |
| 20260902180239 | 93 | 258 | 2.6 | 9.6 | 0.00 | 0.03 | 0.03 | 47 | 1005.9 |
| 20260902175737 | 92 | 233 | 6.1 | 9.6 | 0.00 | 0.03 | 0.03 | 48 | 1006.3 |
| 20260902175238 | 92 | 266 | 5.2 | 7.8 | 0.00 | 0.03 | 0.03 | 49 | 1005.9 |
| 20260902174738 | 92 | 218 | 3.5 | 7.0 | 0.00 | 0.03 | 0.03 | 49 | 1006.3 |
| 20260902174237 | 91 | 206 | 6.1 | 7.8 | 0.00 | 0.03 | 0.03 | 50 | 1005.9 |
| 20260902173740 | 91 | 256 | 1.7 | 7.8 | 0.00 | 0.03 | 0.03 | 50 | 1006.3 |
| 20260902173238 | 91 | 243 | 5.2 | 7.0 | 0.00 | 0.03 | 0.03 | 52 | 1006.3 |
| 20260902172737 | 92 | 253 | 5.2 | 7.0 | 0.00 | 0.03 | 0.03 | 50 | 1006.3 |
| 20260902172238 | 92 | 232 | 4.3 | 9.6 | 0.00 | 0.03 | 0.03 | 50 | 1006.6 |
| 20260902171738 | 91 | 254 | 5.2 | 9.6 | 0.00 | 0.03 | 0.03 | 51 | 1006.3 |
| 20260902171238 | 90 | 256 | 4.3 | 8.7 | 0.00 | 0.03 | 0.03 | 52 | 1006.6 |
| 20260902170739 | 91 | 247 | 4.3 | 8.7 | 0.00 | 0.03 | 0.03 | 52 | 1006.3 |
| 20260902170238 | 90 | 247 | 4.3 | 7.8 | 0.00 | 0.03 | 0.03 | 52 | 1006.6 |
| 20260902165737 | 91 | 240 | 4.3 | 7.8 | 0.00 | 0.03 | 0.03 | 50 | 1006.6 |
| 20260902165238 | 91 | 196 | 4.3 | 9.6 | 0.00 | 0.03 | 0.03 | 52 | 1006.6 |
| 20260902164740 | 90 | 229 | 4.3 | 9.6 | 0.00 | 0.03 | 0.03 | 54 | 1006.6 |
| 20260902164238 | 90 | 239 | 7.0 | 7.0 | 0.00 | 0.03 | 0.03 | 54 | 1007.0 |
| 20260902163737 | 90 | 254 | 3.5 | 7.0 | 0.00 | 0.03 | 0.03 | 53 | 1007.0 |
| 20260902163239 | 91 | 251 | 3.5 | 7.0 | 0.00 | 0.03 | 0.03 | 54 | 1007.0 |
| 20260902162739 | 91 | 266 | 3.5 | 6.1 | 0.00 | 0.03 | 0.03 | 53 | 1007.0 |
| 20260902162237 | 90 | 255 | 2.6 | 7.8 | 0.00 | 0.03 | 0.03 | 54 | 1007.0 |
| 20260902161738 | 90 | 247 | 0.0 | 7.8 | 0.00 | 0.03 | 0.03 | 55 | 1007.3 |
| 20260902161237 | 89 | 241 | 4.3 | 7.8 | 0.00 | 0.03 | 0.03 | 56 | 1007.0 |
| 20260902160738 | 89 | 275 | 0.9 | 7.8 | 0.00 | 0.03 | 0.03 | 57 | 1007.0 |
| 20260902160239 | 89 | 245 | 5.2 | 7.8 | 0.00 | 0.03 | 0.03 | 57 | 1007.3 |
| 20260902155736 | 89 | 266 | 3.5 | 4.3 | 0.00 | 0.03 | 0.03 | 60 | 1007.3 |
| 20260902155238 | 89 | 300 | 1.7 | 7.0 | 0.00 | 0.03 | 0.03 | 62 | 1007.3 |
| 20260902154738 | 87 | 246 | 2.6 | 7.0 | 0.00 | 0.03 | 0.03 | 64 | 1007.3 |
| 20260902154238 | 87 | 258 | 6.1 | 7.0 | 0.00 | 0.03 | 0.03 | 65 | 1007.0 |
| 20260902153737 | 87 | 216 | 5.2 | 7.8 | 0.00 | 0.03 | 0.03 | 65 | 1007.3 |
| 20260902153238 | 87 | 263 | 4.3 | 7.8 | 0.00 | 0.03 | 0.03 | 65 | 1007.3 |
| 20260902152739 | 87 | 271 | 3.5 | 7.0 | 0.00 | 0.03 | 0.03 | 65 | 1007.3 |
| 20260902152241 | 87 | 249 | 2.6 | 5.2 | 0.00 | 0.03 | 0.03 | 65 | 1007.0 |
| 20260902151737 | 86 | 324 | 2.6 | 7.8 | 0.00 | 0.03 | 0.03 | 66 | 1007.3 |
| 20260902151241 | 86 | 300 | 3.5 | 7.8 | 0.00 | 0.03 | 0.03 | 66 | 1007.0 |
| 20260902150737 | 87 | 251 | 6.1 | 7.0 | 0.00 | 0.03 | 0.03 | 65 | 1007.3 |
| 20260902150240 | 86 | 260 | 3.5 | 7.0 | 0.00 | 0.03 | 0.03 | 66 | 1007.0 |
| 20260902145738 | 86 | 266 | 4.3 | 7.0 | 0.00 | 0.03 | 0.03 | 66 | 1007.0 |
| 20260902145236 | 85 | 265 | 0.9 | 6.1 | 0.00 | 0.03 | 0.03 | 69 | 1007.0 |
| 20260902144737 | 85 | 242 | 5.2 | 6.1 | 0.00 | 0.03 | 0.03 | 69 | 1007.0 |
| 20260902144237 | 84 | 224 | 4.3 | 7.8 | 0.00 | 0.03 | 0.03 | 69 | 1007.0 |
| 20260902143737 | 84 | 246 | 5.2 | 7.8 | 0.00 | 0.03 | 0.03 | 69 | 1007.0 |
| 20260902143236 | 84 | 237 | 2.6 | 8.7 | 0.00 | 0.03 | 0.03 | 72 | 1007.0 |
| 20260902142737 | 83 | 250 | 4.3 | 8.7 | 0.00 | 0.03 | 0.03 | 71 | 1007.0 |
| 20260902142237 | 83 | 245 | 3.5 | 7.0 | 0.00 | 0.03 | 0.03 | 72 | 1007.0 |
| 20260902141737 | 83 | 222 | 5.2 | 8.7 | 0.00 | 0.03 | 0.03 | 73 | 1007.0 |
| 20260902141238 | 82 | 215 | 4.3 | 8.7 | 0.00 | 0.03 | 0.03 | 74 | 1007.0 |
| 20260902140737 | 82 | 226 | 4.3 | 8.7 | 0.00 | 0.03 | 0.03 | 74 | 1007.0 |
| 20260902140237 | 81 | 235 | 5.2 | 8.7 | 0.00 | 0.03 | 0.03 | 75 | 1007.0 |
| 20260902135737 | 81 | 261 | 6.1 | 7.0 | 0.00 | 0.03 | 0.03 | 77 | 1007.0 |
| 20260902135237 | 81 | 223 | 6.1 | 8.7 | 0.00 | 0.03 | 0.03 | 77 | 1007.0 |
| 20260902134736 | 80 | 234 | 3.5 | 8.7 | 0.00 | 0.03 | 0.03 | 77 | 1007.0 |
| 20260902134236 | 80 | 239 | 5.2 | 9.6 | 0.00 | 0.03 | 0.03 | 77 | 1007.0 |
| 20260902133737 | 80 | 231 | 4.3 | 10.4 | 0.00 | 0.03 | 0.03 | 78 | 1006.6 |
| 20260902133237 | 80 | 234 | 6.1 | 10.4 | 0.00 | 0.03 | 0.03 | 77 | 1007.0 |
| 20260902132737 | 80 | 226 | 2.6 | 7.8 | 0.00 | 0.03 | 0.03 | 77 | 1007.0 |
| 20260902132237 | 79 | 238 | 1.7 | 9.6 | 0.00 | 0.03 | 0.03 | 78 | 1007.0 |
| 20260902131737 | 79 | 225 | 7.0 | 9.6 | 0.00 | 0.03 | 0.03 | 78 | 1007.0 |
| 20260902131237 | 79 | 229 | 6.1 | 7.8 | 0.00 | 0.03 | 0.03 | 79 | 1006.6 |
| 20260902130737 | 78 | 264 | 4.3 | 7.8 | 0.00 | 0.03 | 0.03 | 79 | 1007.0 |
| 20260902130237 | 78 | 208 | 6.1 | 7.0 | 0.00 | 0.03 | 0.03 | 80 | 1006.6 |
| 20260902125737 | 78 | 209 | 4.3 | 7.0 | 0.00 | 0.03 | 0.03 | 81 | 1007.0 |
| 20260902125237 | 77 | 218 | 4.3 | 9.6 | 0.00 | 0.03 | 0.03 | 81 | 1006.6 |
| 20260902124736 | 77 | 232 | 5.2 | 9.6 | 0.00 | 0.03 | 0.03 | 81 | 1007.0 |
| 20260902124237 | 77 | 257 | 3.5 | 6.1 | 0.00 | 0.03 | 0.03 | 81 | 1006.6 |
| 20260902123737 | 77 | 139 | 0.9 | 6.1 | 0.00 | 0.03 | 0.03 | 81 | 1006.3 |
| 20260902123236 | 77 | 178 | 4.3 | 5.2 | 0.00 | 0.03 | 0.03 | 81 | 1007.0 |
| 20260902122736 | 77 | 238 | 1.7 | 5.2 | 0.00 | 0.03 | 0.03 | 82 | 1007.0 |
| 20260902122236 | 76 | 191 | 3.5 | 7.0 | 0.00 | 0.03 | 0.03 | 82 | 1006.6 |
| 20260902121737 | 76 | 203 | 1.7 | 7.0 | 0.00 | 0.03 | 0.03 | 83 | 1006.6 |
| 20260902121237 | 76 | 188 | 2.6 | 7.0 | 0.00 | 0.03 | 0.03 | 83 | 1006.6 |
| 20260902120736 | 76 | 207 | 2.6 | 7.0 | 0.00 | 0.03 | 0.03 | 83 | 1006.6 |
| 20260902120236 | 76 | 209 | 3.5 | 6.1 | 0.00 | 0.03 | 0.03 | 82 | 1006.3 |
| 20260902115736 | 76 | 207 | 3.5 | 5.2 | 0.00 | 0.03 | 0.03 | 82 | 1006.6 |
| 20260902115237 | 76 | 180 | 1.7 | 5.2 | 0.00 | 0.03 | 0.03 | 83 | 1006.6 |
| 20260902114737 | 75 | 244 | 1.7 | 4.3 | 0.00 | 0.03 | 0.03 | 83 | 1006.3 |
| 20260902114237 | 75 | 232 | 1.7 | 5.2 | 0.00 | 0.03 | 0.03 | 83 | 1006.3 |
| 20260902113736 | 75 | 261 | 1.7 | 6.1 | 0.00 | 0.03 | 0.03 | 83 | 1006.3 |
| 20260902113236 | 75 | 209 | 3.5 | 7.8 | 0.00 | 0.03 | 0.03 | 84 | 1005.9 |
| 20260902112737 | 75 | 240 | 2.6 | 7.8 | 0.00 | 0.03 | 0.03 | 84 | 1006.3 |
| 20260902112237 | 75 | 159 | 2.6 | 5.2 | 0.00 | 0.03 | 0.03 | 84 | 1005.9 |
| 20260902111737 | 75 | 153 | 2.6 | 5.2 | 0.00 | 0.03 | 0.03 | 84 | 1005.9 |
| 20260902111236 | 75 | 191 | 5.2 | 6.1 | 0.00 | 0.03 | 0.03 | 84 | 1005.6 |
| 20260902110737 | 75 | 201 | 2.6 | 6.1 | 0.00 | 0.03 | 0.03 | 84 | 1005.9 |
| 20260902110236 | 75 | 182 | 2.6 | 7.8 | 0.00 | 0.03 | 0.03 | 84 | 1005.9 |
| 20260902105736 | 75 | 205 | 3.5 | 7.8 | 0.00 | 0.03 | 0.03 | 84 | 1005.6 |
| 20260902105237 | 74 | 160 | 2.6 | 5.2 | 0.00 | 0.03 | 0.03 | 85 | 1005.9 |
| 20260902104738 | 74 | 189 | 3.5 | 5.2 | 0.00 | 0.03 | 0.03 | 86 | 1005.6 |
| 20260902104236 | 74 | 203 | 0.9 | 4.3 | 0.00 | 0.03 | 0.03 | 86 | 1005.9 |
| 20260902103737 | 75 | 230 | 2.6 | 5.2 | 0.00 | 0.03 | 0.03 | 85 | 1005.6 |
| 20260902103236 | 75 | 181 | 3.5 | 5.2 | 0.00 | 0.03 | 0.03 | 85 | 1005.6 |
| 20260902102736 | 75 | 170 | 2.6 | 6.1 | 0.00 | 0.03 | 0.03 | 85 | 1005.6 |
| 20260902102236 | 75 | 213 | 2.6 | 6.1 | 0.00 | 0.03 | 0.03 | 84 | 1005.6 |
| 20260902101737 | 75 | 205 | 5.2 | 6.1 | 0.00 | 0.03 | 0.03 | 84 | 1005.6 |
| 20260902101237 | 75 | 178 | 3.5 | 5.2 | 0.00 | 0.03 | 0.03 | 84 | 1005.6 |
| 20260902100737 | 75 | 204 | 1.7 | 5.2 | 0.01 | 0.03 | 0.03 | 84 | 1005.6 |
| 20260902100236 | 75 | 87 | 1.7 | 5.2 | 0.01 | 0.03 | 0.03 | 84 | 1005.6 |
| 20260902095736 | 75 | 217 | 0.9 | 5.2 | 0.01 | 0.03 | 0.03 | 84 | 1005.6 |
| 20260902095236 | 75 | 196 | 2.6 | 7.8 | 0.01 | 0.03 | 0.03 | 84 | 1005.2 |
| 20260902094736 | 75 | 195 | 1.7 | 8.7 | 0.01 | 0.03 | 0.03 | 84 | 1005.2 |
| 20260902094236 | 75 | 182 | 6.1 | 8.7 | 0.00 | 0.03 | 0.03 | 83 | 1005.2 |
| 20260902093737 | 75 | 172 | 4.3 | 8.7 | 0.00 | 0.03 | 0.03 | 83 | 1005.2 |
| 20260902093236 | 75 | 183 | 6.1 | 7.8 | 0.00 | 0.03 | 0.03 | 83 | 1005.6 |
| 20260902092736 | 75 | 190 | 3.5 | 8.7 | 0.00 | 0.03 | 0.03 | 83 | 1005.6 |
| 20260902092236 | 75 | 208 | 5.2 | 8.7 | 0.00 | 0.03 | 0.03 | 82 | 1005.2 |
| 20260902091736 | 76 | 176 | 6.1 | 7.8 | 0.01 | 0.03 | 0.03 | 82 | 1005.2 |
| 20260902091236 | 75 | 174 | 2.6 | 7.8 | 0.01 | 0.03 | 0.03 | 82 | 1005.2 |
| 20260902090736 | 75 | 203 | 6.1 | 8.7 | 0.00 | 0.02 | 0.02 | 82 | 1005.2 |
| 20260902090236 | 76 | 190 | 4.3 | 8.7 | 0.00 | 0.02 | 0.02 | 82 | 1005.2 |
| 20260902085737 | 76 | 185 | 1.7 | 9.6 | 0.00 | 0.02 | 0.02 | 82 | 1005.2 |
| 20260902085236 | 76 | 224 | 3.5 | 9.6 | 0.00 | 0.02 | 0.02 | 82 | 1005.2 |
| 20260902084737 | 76 | 217 | 4.3 | 7.8 | 0.00 | 0.02 | 0.02 | 82 | 1005.2 |
| 20260902084236 | 76 | 181 | 5.2 | 7.8 | 0.01 | 0.02 | 0.02 | 81 | 1005.2 |
| 20260902083736 | 76 | 201 | 2.6 | 6.1 | 0.01 | 0.02 | 0.02 | 81 | 1005.2 |
| 20260902083236 | 76 | 189 | 3.5 | 7.0 | 0.01 | 0.02 | 0.02 | 81 | 1005.2 |
| 20260902082737 | 77 | 195 | 4.3 | 7.0 | 0.01 | 0.02 | 0.02 | 80 | 1005.2 |
| 20260902082237 | 77 | 188 | 4.3 | 6.1 | 0.00 | 0.02 | 0.02 | 80 | 1005.2 |
| 20260902081736 | 77 | 208 | 2.6 | 7.0 | 0.00 | 0.02 | 0.02 | 80 | 1005.2 |
| 20260902081236 | 77 | 179 | 4.3 | 7.8 | 0.01 | 0.02 | 0.02 | 80 | 1005.2 |
| 20260902080736 | 77 | 185 | 5.2 | 7.8 | 0.01 | 0.02 | 0.02 | 80 | 1004.9 |
| 20260902080235 | 77 | 220 | 3.5 | 7.8 | 0.01 | 0.02 | 0.02 | 79 | 1005.2 |
| 20260902075736 | 77 | 182 | 5.2 | 7.8 | 0.01 | 0.02 | 0.02 | 79 | 1004.9 |
| 20260902075237 | 77 | 189 | 3.5 | 9.6 | 0.01 | 0.02 | 0.02 | 79 | 1004.9 |
| 20260902074736 | 77 | 229 | 5.2 | 9.6 | 0.01 | 0.02 | 0.02 | 79 | 1005.2 |
| 20260902074237 | 77 | 188 | 5.2 | 7.8 | 0.01 | 0.02 | 0.02 | 79 | 1005.2 |
| 20260902073736 | 77 | 191 | 3.5 | 7.0 | 0.01 | 0.02 | 0.02 | 80 | 1005.2 |